Time,TemperatureF,DewpointF,PressureIn,WindDirection,WindDirectionDegrees,WindSpeedMPH,WindSpeedGustMPH,Humidity,HourlyPrecipIn,Conditions,Clouds,dailyrainin,SolarRadiationWatts/m^2,SoftwareType,DateUTC
2013-10-24 00:04:00,60.0,44.0,-100.00,SSW,204,7.0,10.0,56,0.00,,,0.00,0.000000,,2013-10-24 05:04:00,
2013-10-24 00:43:00,59.0,45.0,-100.00,SSW,207,7.0,11.0,59,0.00,,,0.00,0.000000,,2013-10-24 05:43:00,
2013-10-24 00:53:00,59.0,45.0,-100.00,SSW,207,7.0,11.0,59,0.00,,,0.00,0.000000,,2013-10-24 05:53:00,
2013-10-24 01:03:00,59.0,45.0,-100.00,SSW,207,7.0,11.0,59,0.00,,,0.00,0.000000,,2013-10-24 06:03:00,
2013-10-24 01:42:00,56.0,43.0,-100.00,SSW,194,1.0,10.0,61,0.00,,,0.00,0.000000,,2013-10-24 06:42:00,
2013-10-24 01:52:00,56.0,43.0,-100.00,SSW,194,1.0,10.0,61,0.00,,,0.00,0.000000,,2013-10-24 06:52:00,
2013-10-24 02:02:00,56.0,43.0,-100.00,SSW,194,1.0,10.0,61,0.00,,,0.00,0.000000,,2013-10-24 07:02:00,
2013-10-24 02:42:00,58.0,45.0,-100.00,WNW,301,4.0,6.0,62,0.00,,,0.00,0.000000,,2013-10-24 07:42:00,
2013-10-24 02:52:00,58.0,45.0,-100.00,WNW,301,4.0,6.0,62,0.00,,,0.00,0.000000,,2013-10-24 07:52:00,
2013-10-24 03:02:00,58.0,45.0,-100.00,WNW,301,4.0,6.0,62,0.00,,,0.00,0.000000,,2013-10-24 08:02:00,
2013-10-24 03:42:00,54.0,49.0,-100.00,North,353,3.0,5.0,82,0.00,,,0.00,0.000000,,2013-10-24 08:42:00,
2013-10-24 03:53:00,54.0,49.0,-100.00,North,353,3.0,5.0,82,0.00,,,0.00,0.000000,,2013-10-24 08:53:00,
2013-10-24 04:01:00,54.0,49.0,-100.00,North,353,3.0,5.0,82,0.00,,,0.00,0.000000,,2013-10-24 09:01:00,
2013-10-24 04:43:00,53.0,48.0,-100.00,NNW,330,3.0,5.0,82,0.00,,,-99.99,0.000000,,2013-10-24 09:43:00,
2013-10-24 04:53:00,53.0,48.0,-100.00,NNW,330,3.0,5.0,82,0.00,,,-99.99,0.000000,,2013-10-24 09:53:00,
2013-10-24 05:03:00,53.0,48.0,-100.00,NNW,330,3.0,5.0,82,0.00,,,-99.99,0.000000,,2013-10-24 10:03:00,
2013-10-24 05:43:00,51.0,48.0,-100.00,NW,321,2.0,7.0,89,0.00,,,0.00,0.000000,,2013-10-24 10:43:00,
2013-10-24 05:53:00,51.0,48.0,-100.00,NW,321,2.0,7.0,89,0.00,,,0.00,0.000000,,2013-10-24 10:53:00,
2013-10-24 06:02:00,51.0,48.0,-100.00,NW,321,2.0,7.0,89,0.00,,,0.00,0.000000,,2013-10-24 11:02:00,
2013-10-24 06:43:00,47.0,42.0,-100.00,NNE,23,1.0,5.0,83,0.00,,,-99.99,0.000000,,2013-10-24 11:43:00,
2013-10-24 06:53:00,47.0,42.0,-100.00,NNE,23,1.0,5.0,83,0.00,,,-99.99,0.000000,,2013-10-24 11:53:00,
2013-10-24 07:01:00,47.0,42.0,-100.00,NNE,23,1.0,5.0,83,0.00,,,-99.99,0.000000,,2013-10-24 12:01:00,
2013-10-24 07:42:00,47.0,43.0,-100.00,North,354,2.0,4.0,87,0.00,,,0.00,0.000000,,2013-10-24 12:42:00,
2013-10-24 07:52:00,47.0,43.0,-100.00,North,354,2.0,4.0,87,0.00,,,0.00,0.000000,,2013-10-24 12:52:00,
2013-10-24 08:01:00,47.0,43.0,-100.00,North,354,2.0,4.0,87,0.00,,,0.00,0.000000,,2013-10-24 13:01:00,
2013-10-24 08:42:00,46.0,44.0,-100.00,South,191,0.0,3.0,94,0.00,,,-99.99,9.000000,,2013-10-24 13:42:00,
2013-10-24 08:52:00,46.0,44.0,-100.00,South,191,0.0,3.0,94,0.00,,,-99.99,9.000000,,2013-10-24 13:52:00,
2013-10-24 09:01:00,46.0,44.0,-100.00,South,191,0.0,3.0,94,0.00,,,-99.99,9.000000,,2013-10-24 14:01:00,
2013-10-24 09:42:00,50.0,47.0,-100.00,South,176,0.0,2.0,91,0.00,,,0.00,117.000000,,2013-10-24 14:42:00,
2013-10-24 09:52:00,50.0,47.0,-100.00,South,176,0.0,2.0,91,0.00,,,0.00,117.000000,,2013-10-24 14:52:00,
2013-10-24 10:01:00,50.0,47.0,-100.00,South,176,0.0,2.0,91,0.00,,,0.00,117.000000,,2013-10-24 15:01:00,
2013-10-24 10:43:00,60.0,54.0,-100.00,SE,142,3.0,4.0,80,0.00,,,0.00,288.000000,,2013-10-24 15:43:00,
2013-10-24 11:43:00,67.0,47.0,-100.00,SSW,192,5.0,8.0,49,0.00,,,0.00,593.000000,,2013-10-24 16:43:00,
2013-10-24 11:53:00,67.0,47.0,-100.00,SSW,192,5.0,8.0,49,0.00,,,0.00,593.000000,,2013-10-24 16:53:00,
2013-10-24 12:03:00,67.0,47.0,-100.00,SSW,192,5.0,8.0,49,0.00,,,0.00,593.000000,,2013-10-24 17:03:00,
2013-10-24 12:43:00,71.0,49.0,-100.00,ESE,122,4.0,10.0,45,0.00,,,0.00,600.000000,,2013-10-24 17:43:00,
2013-10-24 12:52:00,71.0,49.0,-100.00,ESE,122,4.0,10.0,45,0.00,,,0.00,600.000000,,2013-10-24 17:52:00,
2013-10-24 13:02:00,71.0,49.0,-100.00,ESE,122,4.0,10.0,45,0.00,,,0.00,600.000000,,2013-10-24 18:02:00,
2013-10-24 13:42:00,76.0,48.0,-100.00,SSW,203,8.0,14.0,37,0.00,,,-99.99,680.000000,,2013-10-24 18:42:00,
2013-10-24 13:53:00,76.0,48.0,-100.00,SSW,203,8.0,14.0,37,0.00,,,-99.99,680.000000,,2013-10-24 18:53:00,
2013-10-24 14:02:00,76.0,48.0,-100.00,SSW,203,8.0,14.0,37,0.00,,,-99.99,680.000000,,2013-10-24 19:02:00,
2013-10-24 14:43:00,78.0,47.0,-100.00,SSW,192,7.0,12.0,34,0.00,,,0.00,848.000000,,2013-10-24 19:43:00,
2013-10-24 14:53:00,78.0,47.0,-100.00,SSW,192,7.0,12.0,34,0.00,,,0.00,848.000000,,2013-10-24 19:53:00,
2013-10-24 15:02:00,78.0,47.0,-100.00,SSW,192,7.0,12.0,34,0.00,,,0.00,848.000000,,2013-10-24 20:02:00,
2013-10-24 15:43:00,79.0,43.0,-100.00,South,173,7.0,15.0,28,0.00,,,0.00,790.000000,,2013-10-24 20:43:00,
2013-10-24 15:53:00,79.0,43.0,-100.00,South,173,7.0,15.0,28,0.00,,,0.00,790.000000,,2013-10-24 20:53:00,
2013-10-24 16:02:00,79.0,43.0,-100.00,South,173,7.0,15.0,28,0.00,,,0.00,790.000000,,2013-10-24 21:02:00,
2013-10-24 16:43:00,79.0,43.0,-100.00,SE,131,9.0,15.0,28,0.00,,,-99.99,664.000000,,2013-10-24 21:43:00,
2013-10-24 16:54:00,79.0,43.0,-100.00,SE,131,9.0,15.0,28,0.00,,,-99.99,664.000000,,2013-10-24 21:54:00,
2013-10-24 17:04:00,79.0,43.0,-100.00,SE,131,9.0,15.0,28,0.00,,,-99.99,664.000000,,2013-10-24 22:04:00,
2013-10-24 18:43:00,77.0,42.0,-100.00,ESE,119,7.0,13.0,29,-99.99,,,0.00,262.000000,,2013-10-24 23:43:00,
2013-10-24 18:53:00,77.0,42.0,-100.00,ESE,119,7.0,13.0,29,-99.99,,,0.00,262.000000,,2013-10-24 23:53:00,
2013-10-24 19:02:00,77.0,42.0,-100.00,ESE,119,7.0,13.0,29,-99.99,,,0.00,262.000000,,2013-10-25 00:02:00,
2013-10-24 19:42:00,70.0,42.0,-100.00,East,84,6.0,10.0,36,0.00,,,0.00,54.000000,,2013-10-25 00:42:00,
2013-10-24 19:52:00,70.0,42.0,-100.00,East,84,6.0,10.0,36,0.00,,,0.00,54.000000,,2013-10-25 00:52:00,
2013-10-24 20:02:00,70.0,42.0,-100.00,East,84,6.0,10.0,36,0.00,,,0.00,54.000000,,2013-10-25 01:02:00,
2013-10-24 20:43:00,66.0,46.0,-100.00,East,82,8.0,9.0,49,0.00,,,0.00,0.000000,,2013-10-25 01:43:00,
2013-10-24 20:53:00,66.0,46.0,-100.00,East,82,8.0,9.0,49,0.00,,,0.00,0.000000,,2013-10-25 01:53:00,
2013-10-24 21:02:00,66.0,46.0,-100.00,East,82,8.0,9.0,49,0.00,,,0.00,0.000000,,2013-10-25 02:02:00,
2013-10-24 21:43:00,63.0,44.0,-100.00,East,95,5.0,9.0,50,0.00,,,0.00,0.000000,,2013-10-25 02:43:00,
2013-10-24 21:52:00,63.0,44.0,-100.00,East,95,5.0,9.0,50,0.00,,,0.00,0.000000,,2013-10-25 02:52:00,
2013-10-24 22:03:00,63.0,44.0,-100.00,East,95,5.0,9.0,50,0.00,,,0.00,0.000000,,2013-10-25 03:03:00,
2013-10-24 22:44:00,59.0,46.0,-100.00,ESE,113,4.0,5.0,62,0.00,,,0.00,0.000000,,2013-10-25 03:44:00,
2013-10-24 22:54:00,59.0,46.0,-100.00,ESE,113,4.0,5.0,62,0.00,,,0.00,0.000000,,2013-10-25 03:54:00,
2013-10-24 23:04:00,59.0,46.0,-100.00,ESE,113,4.0,5.0,62,0.00,,,0.00,0.000000,,2013-10-25 04:04:00,
2013-10-24 23:44:00,59.0,46.0,-100.00,ESE,102,6.0,8.0,61,0.00,,,0.00,0.000000,,2013-10-25 04:44:00,
2013-10-24 23:54:00,59.0,46.0,-100.00,ESE,102,6.0,8.0,61,0.00,,,0.00,0.000000,,2013-10-25 04:54:00,